[[{"header":{"parameterUnit":"m.s-1","parameterCategory":1,"la1":30.2991,"la2":30.254,"lo1":-89.0895,"lo2":-89.0444,"dy":0.0017,"dx":0.0017,"nx":28,"ny":28,"refTime":"2026-02-14T03:00:00:Z","depth":0,"parameterNumber":2,"parameterNumberName":"U-component_of_WINDS"},"data":[0,0,0,0,0,0,0,0,0,0,0,0,0,0,0,0,0,0,0,0,0,0,0,0,0,0,0,0,0,0,0,0,0,0,0,0,0,0,0,0,0,0,0,0,0,0,0,0,0,0,0,0,0,0,0,0,0,0,-5.0195,-5.0196,0,-5.0333,-5.0335,-5.0336,-5.0329,-5.0327,-5.0325,-5.0323,-5.0465,-5.0471,-5.0476,0,0,0,0,0,0,0,0,0,0,0,0,0,-4.9924,-4.9929,-5.0194,-5.0196,-5.0198,-5.0333,-5.0335,-5.0337,-5.033,-5.0327,-5.0325,-5.0322,-5.0463,-5.047,-5.0477,0,0,0,0,0,0,0,0,0,0,0,0,0,-5.005,-4.993,-5.0194,-5.0211,-5.0213,-5.0333,-5.0335,-5.0337,-5.033,-5.0327,-5.0324,-5.0321,-5.0461,-5.0469,-5.0478,-5.0589,0,0,-5.0503,-5.0507,0,0,0,0,0,0,0,0,-5.0043,-5.006,-5.0206,-5.021,-5.0213,-5.0311,-5.0291,-5.0422,-5.0331,-5.0286,-5.0323,-5.032,-5.0416,-5.0428,-5.0461,-5.0596,-5.0602,-5.0504,-5.0509,-5.0513,-5.0515,0,0,0,0,0,0,0,-5.0034,-5.0054,-5.0249,-5.0209,-5.0213,-5.0211,-5.0226,-5.0316,-5.0366,-5.0289,-5.0289,-5.0306,-5.0417,-5.0453,-5.0464,-5.0604,-5.0504,-5.0511,-5.0517,-5.052,-5.0839,-5.0842,0,0,0,0,0,0,-5.0021,-5.0046,-5.0245,-5.0253,-5.0119,-5.0218,-5.0235,-5.0282,-5.0365,-5.0375,-5.0308,-5.0305,-5.044,-5.0454,-5.0469,-5.0605,-5.0513,-5.0521,-5.0526,-5.0835,-5.0839,-5.0843,0,0,0,0,0,0,-5.0016,-5.0039,-5.0239,-5.015,-5.0175,-5.0226,-5.028,-5.0287,-5.0322,-5.0379,-5.0388,-5.0335,-5.0438,-5.0457,-5.056,-5.061,-5.0525,-5.0532,-5.0831,-5.0837,-5.0841,-5.0878,0,0,0,0,0,0,-5.0008,-5.0037,-5.008,-5.0151,-5.018,-5.0327,-5.0283,-5.0292,-5.0336,-5.0334,-5.0407,-5.0416,-5.0437,-5.0547,-5.0568,-5.062,-5.0539,-5.0827,-5.0834,-5.084,-5.0872,-5.0883,-5.0893,0,0,0,0,0,-4.9998,-5.0085,-5.0082,-5.0106,-5.0235,-5.033,-5.0347,-5.037,-5.0341,-5.0384,-5.0421,-5.0413,-5.0601,-5.0558,-5.0581,-5.0636,-5.0824,-5.0832,-5.0839,-5.0867,-5.0881,-5.0893,0,0,0,0,0,0,-5.0017,-5.0094,-5.0092,-5.0204,-5.0261,-5.0329,-5.0384,-5.0383,-5.0449,-5.0444,-5.0469,-5.0486,-5.0589,-5.0623,-5.0573,-5.0749,-5.0709,-5.0722,-5.0722,-5.0736,-5.0746,-5.0735,-5.0546,0,0,0,0,0,-5.0035,-5.0106,-5.0169,-5.0262,-5.0291,-5.0333,-5.0375,-5.0388,-5.0448,-5.0472,-5.0516,-5.0574,-5.0647,-5.0693,-5.0763,-5.0878,-5.0893,-5.0928,-5.0938,-5.0946,-5.0956,-5.1019,-5.1035,-5.0868,-5.0868,-5.0868,0,0,-5.0071,-5.0122,-5.0165,-5.0267,-5.0312,-5.0386,-5.0353,-5.0432,-5.0486,-5.0484,-5.0583,-5.0618,-5.0685,-5.0794,-5.0844,-5.0825,-5.1006,-5.0956,-5.0962,-5.0968,-5.1029,-5.1045,-5.1058,-5.0873,-5.0872,-5.0872,0,0,-5.0174,-5.022,-5.0302,-5.0349,-5.0418,-5.0446,-5.0466,-5.0535,-5.0558,-5.0658,-5.0658,-5.0723,-5.0847,-5.0895,-5.0935,-5.1058,-5.1054,-5.1081,-5.1134,-5.1195,-5.1208,-5.122,-5.1263,-5.1278,-5.1091,-5.1091,-5.1091,0,-5.021,-5.032,-5.0344,-5.0424,-5.0468,-5.0471,-5.0554,-5.0598,-5.0687,-5.0717,-5.0696,-5.0852,-5.0897,-5.1017,-5.1047,-5.108,-5.1103,-5.1071,-5.1205,-5.1217,-5.1228,-5.1269,-5.1285,-5.1094,-5.1093,-5.1093,-5.1093,0,-5.0361,-5.0437,-5.0495,-5.0581,-5.0633,-5.0714,-5.075,-5.08,-5.0809,-5.0839,-5.0941,-5.0996,-5.1077,-5.1107,-5.1116,-5.1229,-5.1215,-5.1199,-5.1159,-5.1246,-5.1285,-5.1301,-5.1098,-5.1097,-5.1096,-5.1095,0,0,-5.0477,-5.0576,-5.0597,-5.0636,-5.0714,-5.0774,-5.0855,-5.0935,-5.0976,-5.1038,-5.1107,-5.1213,-5.1198,-5.1244,-5.126,-5.1314,-5.1407,-5.1291,-5.1293,-5.1309,-5.1533,-5.1543,-5.1561,-5.1405,-5.1408,-5.1411,-5.1527,0,-5.0587,-5.0731,-5.0756,-5.0882,-5.0953,-5.0957,-5.1028,-5.1084,-5.1115,-5.118,-5.1214,-5.1288,-5.1264,-5.1292,-5.1346,-5.1384,-5.1452,-5.1376,-5.1469,-5.1472,-5.1449,-5.1582,-5.1593,-5.17,-5.1543,-5.1546,-5.1547,0,-5.0733,-5.0799,-5.0932,-5.1001,-5.1032,-5.1095,-5.117,-5.1233,-5.1296,-5.1315,-5.1367,-5.1376,-5.1462,-5.142,-5.1537,-5.1485,-5.1525,-5.1549,-5.1554,-5.1562,-5.1513,-5.1592,-5.1735,-5.175,-5.1572,-5.157,-5.1568,0,-5.0803,-5.0925,-5.1021,-5.1054,-5.1137,-5.1182,-5.1219,-5.1279,-5.1326,-5.1392,-5.1422,-5.1497,-5.1538,-5.1596,-5.1625,-5.1592,-5.1741,-5.1701,-5.1758,-5.1757,-5.1787,-5.1784,-5.1936,-5.1816,-5.1816,-5.1815,-5.1815,0,-5.0922,-5.1003,-5.1053,-5.1112,-5.1203,-5.1231,-5.1321,-5.1357,-5.1411,-5.1477,-5.1486,-5.1547,-5.1584,-5.1651,-5.1675,-5.1768,-5.1787,-5.1804,-5.1809,-5.1802,-5.18,-5.1827,-5.1819,-5.182,-5.1819,-5.1818,-5.1817,0,-5.1014,-5.1051,-5.1155,-5.1226,-5.1246,-5.131,-5.137,-5.1427,-5.1459,-5.1542,-5.1563,-5.1613,-5.1692,-5.1728,-5.1827,-5.1843,-5.1949,-5.1949,-5.1927,-5.1928,-5.1982,-5.1976,-5.2156,-5.218,-5.2045,-5.2046,-5.2048,0,-5.1086,-5.1148,-5.1226,-5.1271,-5.1309,-5.1381,-5.1428,-5.146,-5.1509,-5.1587,-5.1635,-5.1715,-5.178,-5.1907,-5.1951,-5.2027,-5.2028,-5.2086,-5.2039,-5.2031,-5.2027,-5.2022,-5.2028,-5.2094,-5.2095,-5.2096,-5.2097,0,-5.121,-5.1225,-5.1293,-5.1369,-5.1425,-5.1486,-5.1545,-5.1582,-5.1622,-5.1677,-5.1759,-5.1809,-5.191,-5.1989,-5.2068,-5.2106,-5.2108,-5.2112,-5.2129,-5.2121,-5.2105,-5.2113,-5.1948,-5.2107,-5.2106,-5.2105,-5.2105,-5.2104,-5.1293,-5.1349,-5.1412,-5.1488,-5.1536,-5.1592,-5.1649,-5.1689,-5.1757,-5.1841,-5.1856,-5.1943,-5.2006,-5.2111,-5.2153,-5.2221,-5.2207,-5.2232,-5.2238,-5.2243,-5.2245,-5.2096,-5.2236,-5.2235,-5.2235,-5.2235,-5.2235,0,-5.1416,-5.1457,-5.1527,-5.161,-5.167,-5.1668,-5.1734,-5.1784,-5.186,-5.1919,-5.1984,-5.2078,-5.2155,-5.2207,-5.2285,-5.233,-5.2333,-5.2349,-5.2345,-5.2353,-5.2254,-5.2231,-5.2345,-5.2345,-5.2345,-5.2345,-5.2345,-5.2345,-5.1486,-5.158,-5.1604,-5.1722,-5.1763,-5.1848,-5.1886,-5.1938,-5.1985,-5.2089,-5.2153,-5.2187,-5.2243,-5.2326,-5.2397,-5.241,-5.2438,-5.2454,-5.2467,-5.2372,-5.2361,-5.2349,-5.2328,-5.246,-5.2461,-5.256,-5.2561,-5.2562]},{"header":{"parameterUnit":"m.s-1","parameterCategory":1,"la1":30.2991,"la2":30.254,"lo1":-89.0895,"lo2":-89.0444,"dy":0.0017,"dx":0.0017,"nx":28,"ny":28,"refTime":"2026-02-14T03:00:00:Z","depth":0,"parameterNumber":3,"parameterNumberName":"V-component_of_WINDS"},"data":[0,0,0,0,0,0,0,0,0,0,0,0,0,0,0,0,0,0,0,0,0,0,0,0,0,0,0,0,0,0,0,0,0,0,0,0,0,0,0,0,0,0,0,0,0,0,0,0,0,0,0,0,0,0,0,0,0,0,2.7343,2.7345,0,2.7479,2.748,2.7482,2.754,2.7539,2.7539,2.7539,2.7678,2.7682,2.7686,0,0,0,0,0,0,0,0,0,0,0,0,0,2.7136,2.7139,2.7343,2.7345,2.7346,2.7478,2.748,2.7482,2.754,2.7539,2.7539,2.7539,2.7677,2.7681,2.7686,0,0,0,0,0,0,0,0,0,0,0,0,0,2.7244,2.7141,2.7343,2.7391,2.7397,2.7478,2.748,2.7483,2.754,2.7539,2.7539,2.7539,2.7675,2.7681,2.7687,2.773,0,0,2.7705,2.7707,0,0,0,0,0,0,0,0,2.7238,2.7252,2.7382,2.7388,2.7394,2.7492,2.7458,2.7566,2.754,2.7485,2.7539,2.7538,2.7616,2.7627,2.7653,2.7737,2.7743,2.7705,2.7709,2.7711,2.7713,0,0,0,0,0,0,0,2.723,2.7246,2.7397,2.7384,2.7391,2.7407,2.7422,2.7479,2.7551,2.749,2.7495,2.751,2.762,2.7647,2.7657,2.7745,2.7705,2.771,2.7714,2.7716,2.7874,2.7875,0,0,0,0,0,0,2.7215,2.7239,2.7392,2.7401,2.7314,2.7411,2.7427,2.7461,2.7551,2.7564,2.751,2.7512,2.7638,2.765,2.7662,2.7721,2.7711,2.7717,2.772,2.7874,2.7874,2.7875,0,0,0,0,0,0,2.721,2.7228,2.7387,2.7322,2.7343,2.7415,2.7452,2.7464,2.7492,2.7566,2.7579,2.7525,2.7638,2.7654,2.7714,2.7727,2.7719,2.7725,2.7873,2.7874,2.7875,2.7839,0,0,0,0,0,0,2.7204,2.7226,2.7242,2.7321,2.7346,2.7435,2.7453,2.7467,2.7502,2.7506,2.7583,2.7596,2.7639,2.7704,2.7719,2.7735,2.7729,2.7872,2.7873,2.7874,2.7839,2.7838,2.7838,0,0,0,0,0,2.7196,2.7226,2.7243,2.7261,2.7368,2.7436,2.745,2.7499,2.7502,2.752,2.7569,2.7594,2.7723,2.771,2.7727,2.7745,2.7871,2.7873,2.7874,2.7839,2.7838,2.7838,0,0,0,0,0,0,2.7146,2.7237,2.7257,2.7313,2.7366,2.7445,2.7469,2.7496,2.7549,2.755,2.7608,2.7626,2.7681,2.7719,2.7703,2.7794,2.7799,2.7804,2.7767,2.7767,2.7766,2.7756,2.7734,0,0,0,0,0,2.7141,2.7188,2.7266,2.7308,2.7334,2.7397,2.7428,2.7461,2.7519,2.7541,2.7594,2.7649,2.7703,2.7737,2.779,2.7845,2.7864,2.7865,2.7865,2.7864,2.7868,2.7903,2.7905,2.788,2.788,2.788,0,0,2.7132,2.7188,2.7214,2.7299,2.7344,2.7393,2.7415,2.7465,2.7502,2.7549,2.761,2.765,2.7716,2.7774,2.7802,2.7807,2.7879,2.7866,2.7865,2.7869,2.7905,2.7907,2.7909,2.7881,2.7881,2.7881,0,0,2.7141,2.7187,2.7228,2.7274,2.7343,2.7385,2.7395,2.7471,2.75,2.7562,2.7599,2.7644,2.7734,2.7781,2.7816,2.7845,2.7871,2.7861,2.7858,2.7891,2.7893,2.7895,2.7908,2.7912,2.7864,2.7864,2.7864,0,2.7121,2.7195,2.7246,2.7295,2.7332,2.7378,2.7422,2.7463,2.7546,2.7571,2.7575,2.7692,2.7739,2.781,2.7818,2.7844,2.7859,2.7852,2.7889,2.7891,2.7894,2.7907,2.7911,2.7863,2.7863,2.7863,2.7863,0,2.7168,2.7219,2.7245,2.7324,2.7365,2.741,2.747,2.7504,2.7534,2.7577,2.7641,2.7699,2.7766,2.7786,2.7815,2.7862,2.7864,2.7877,2.7885,2.7894,2.7907,2.7913,2.786,2.7861,2.7861,2.7862,0,0,2.7148,2.7257,2.7266,2.7304,2.7384,2.7425,2.7474,2.754,2.757,2.7626,2.767,2.7746,2.7761,2.7801,2.7836,2.7865,2.7888,2.7876,2.7879,2.7878,2.7947,2.7937,2.7942,2.7905,2.7907,2.7907,2.7942,0,2.7169,2.7258,2.7307,2.7376,2.7426,2.7471,2.7514,2.7569,2.761,2.7659,2.7705,2.7759,2.7773,2.7798,2.7829,2.7878,2.7903,2.7876,2.7948,2.795,2.7932,2.7948,2.7938,2.7967,2.7948,2.7948,2.7949,0,2.7204,2.7261,2.7335,2.7413,2.7436,2.7473,2.754,2.7585,2.7649,2.7678,2.7724,2.7759,2.7814,2.7817,2.7895,2.7876,2.7908,2.7937,2.794,2.7949,2.7951,2.796,2.7978,2.7983,2.7957,2.7957,2.7956,0,2.7185,2.7279,2.7337,2.7368,2.7459,2.7485,2.7525,2.7588,2.7626,2.7684,2.771,2.7773,2.7808,2.7857,2.791,2.7906,2.7984,2.799,2.801,2.8009,2.8025,2.8023,2.805,2.8043,2.8043,2.8043,2.8043,0,2.7204,2.7248,2.733,2.7365,2.7417,2.7474,2.7524,2.7567,2.7624,2.767,2.7713,2.7755,2.7821,2.7872,2.7913,2.7973,2.7988,2.8013,2.8024,2.801,2.8007,2.8033,2.8033,2.8044,2.8044,2.8043,2.8043,0,2.719,2.7246,2.7313,2.7395,2.7417,2.7452,2.7523,2.756,2.7604,2.7662,2.7679,2.7749,2.7811,2.7868,2.7951,2.7979,2.804,2.8053,2.8019,2.8025,2.8043,2.8041,2.8088,2.8098,2.8082,2.8082,2.8082,0,2.7199,2.7234,2.7321,2.7355,2.7394,2.7448,2.7488,2.7546,2.7585,2.7663,2.7691,2.7757,2.7813,2.7911,2.7969,2.8034,2.8049,2.8062,2.8059,2.8046,2.8052,2.805,2.8055,2.8061,2.8061,2.8061,2.8061,0,2.7209,2.7236,2.7291,2.7358,2.7404,2.7458,2.7514,2.754,2.7608,2.7651,2.7716,2.7759,2.7845,2.7911,2.7983,2.8024,2.8055,2.8061,2.807,2.8057,2.8036,2.805,2.8019,2.806,2.806,2.806,2.806,2.806,2.7209,2.7244,2.7311,2.7372,2.7421,2.7473,2.7513,2.7563,2.7618,2.7693,2.7724,2.7791,2.7857,2.7957,2.7998,2.8052,2.8058,2.807,2.8073,2.8076,2.8074,2.8027,2.8065,2.8065,2.8065,2.8066,2.8066,0,2.7223,2.727,2.7325,2.7403,2.7452,2.7477,2.7541,2.758,2.7638,2.7697,2.7752,2.7829,2.7894,2.7958,2.8027,2.8058,2.8074,2.8074,2.8073,2.8083,2.8064,2.8051,2.806,2.806,2.806,2.806,2.806,2.806,2.7237,2.7298,2.7334,2.742,2.7467,2.7533,2.7568,2.7617,2.7665,2.7748,2.7803,2.7845,2.7907,2.7981,2.8043,2.806,2.8085,2.8081,2.8103,2.8084,2.8084,2.8084,2.8072,2.8086,2.8086,2.8118,2.8118,2.8118]}]]